Regional Weather Roundup
Issued by NWS Wakefield, VA

Home | Current Version | Previous Version | Graphics & Text | Print | Product List | Glossary On
Versions: 1 2 3 4 5 6 7 8 9 10 11 12 13 14 15 16 17 18 19 20 21 22 23 24 25 26 27 28 29 30 31 32 33 34 35 36 37 38 39 40 41 42 43 44 45 46 47 48 49 50
000
ASUS41 KAKQ 050510
RWRAKQ

REGIONAL WEATHER ROUNDUP
NATIONAL WEATHER SERVICE WAKEFIELD VA
1200 AM EST THU MAR 05 2015

Note: "fair" indicates few or no clouds below 12,000 feet with no
significant weather and/or obstructions to visibility. * = Denotes
station may not report precipitation (e.g., rain,snow,etc.),
thunder or fog.

VAZ042-051-052>054-056-050600-
NORTHERN VIRGINIA

CITY           SKY/WX    TMP DP  RH WIND       PRES   REMARKS
WASH NATIONAL  LGT RAIN  45  41  86 N7        29.97R FOG
DULLES         LGT RAIN  41  38  89 N8        29.96S FOG
FORT BELVOIR   LGT RAIN  44  43  95 VRB3      29.96F
QUANTICO       LGT RAIN  43  41  93 NE8       29.96S FOG
FREDERICKSBRG* RAIN      47  47 100 N6        29.95R
STAFFORD*      RAIN      44  32  62 N6        29.98F
WARRENTON      DRIZZLE   44  44 100 NE6       29.94F
CULPEPER*      LGT RAIN  45  45 100 CALM      29.95S
MANASSAS*      CLOUDY    43  43 100 N8        29.95S
LEESBURG*      LGT RAIN  41  41 100 N9        29.97S
WINCHESTER     LGT RAIN  41  36  81 N6        29.97R
FRONT ROYAL*   CLOUDY    41  39  93 NE5       29.95S
LURAY*         LGT RAIN  45  45 100 NE6       29.93S
$$

VAZ048-049-060>072-079>083-050600-
CENTRAL AND SOUTH CENTRAL VIRGINIA

CITY           SKY/WX    TMP DP  RH WIND       PRES   REMARKS
RICHMOND       CLOUDY    52  50  93 N5        29.90F FOG
CHESTERFIELD*  CLOUDY    52  43  71 CALM      29.91F
PETERSBURG*    DRIZZLE   55  53  93 W3        29.92S
HANOVER        LGT RAIN  51  50  96 CALM      29.92F FOG
TAPPAHANNOCK*  LGT RAIN  49  48  94 CALM      29.93R VSB 1/4
QUINTON*       CLOUDY    50  50  99 CALM      29.91S
CHARLOTTSVILLE LGT RAIN  45  44  97 E7        29.91F VSB 3/4
GORDONSVILLE*  CLOUDY    44  44  99 NE7       29.92F
ORANGE*        HVY RAIN  45  45 100 N7        29.94F
LOUISA*        HVY RAIN  48  48 100 N9        29.91S
BUMPASS*       CLOUDY    48  48  99 N5        29.92S
FARMVILLE*     LGT RAIN  52  52 100 CALM      29.91S
CREWE*         CLOUDY    53  51  95 CALM      29.91F
FORT PICKETT*  CLOUDY    53  51  94 CALM      29.91S
CHASE CITY*    CLOUDY    56  56  97 NE3       29.89S
CLARKSVILLE*   MOCLDY    54  52  94 N7        29.88R
SOUTH HILL*    CLOUDY    56  53  90 N5        29.95R
LAWRENCEVILLE* CLOUDY    55  53  91 CALM      29.89S
EMPORIA*       MOCLDY    54  52  94 NW6       29.91S
$$

VAZ088>098-050600-
SOUTHEAST VIRGINIA

CITY           SKY/WX    TMP DP  RH WIND       PRES   REMARKS
NORFOLK        FOG       45  43  93 NE3       29.89R VSB 1/4
VIRGINIA BEACH PTCLDY    47  43  86 N9        29.89R
NORFOLK NAVAL  FOG       50  46  86 CALM      29.91R VSB 1/4
WEST POINT*    CLOUDY    53  50  92 NW3       29.92S VSB 1
SALUDA*        CLOUDY    44  43  97 CALM      29.89F VSB 1/2
NEWPORT NEWS   CLOUDY    53  50  89 CALM      29.90R FOG
LANGLEY AFB    FOG       50  48  93 N6        29.89R VSB 1/2
FORT EUSTIS    FOG       50 N/A N/A N1        29.88S VSB 1
WILLIAMSBURG*  MOCLDY    54  54 100 CALM      29.90F
HR EXEC AP*    CLOUDY    46  45  93 CALM      29.92R VSB 1/4
FRANKLIN*      MOCLDY    53  52  98 N3        29.90R
WAKEFIELD      CLOUDY    53  50  89 CALM      29.90S FOG
$$

VAZ020-022-025-037-045-050600-
WEST CENTRAL AND SOUTHWEST VIRGINIA

CITY           SKY/WX    TMP DP  RH WIND       PRES   REMARKS
STAUNTON*      LGT RAIN  43  42  96 CALM      29.93F VSB 1
WAYNESBORO*    CLOUDY    45  45 100 NW5       29.91S
HOT SPRINGS VA LGT RAIN  37  37 100 W12       29.88S VSB 1/4
LYNCHBURG      CLOUDY    48  48 100 N3        29.93S FOG
DANVILLE       CLOUDY    57  49  74 N6        29.89S
SOUTH BOSTON*  CLOUDY    55  50  85 NE5       29.88F
MARTINSVILLE   CLOUDY    55  48  77 NE7       29.92S
ROANOKE        CLOUDY    46  45  96 CALM      29.94F
BLACKSBURG     DRIZZLE   43  43  99 W5        29.96R
DUBLIN*        CLOUDY    44  44  99 N6        29.94S
MARION*        DRIZZLE   47  45  95 NW9       29.94F
HILLSVILLE*    CLOUDY    47  45  94 N7        29.91F
RICHLANDS*     DRZL/FOG  37  36  95 NW6       29.98R VSB 1
WISE*          DRIZZLE   34  34 100 N5        30.00S
ABINGDON*      RAIN      44  42  92 CALM      29.95R
$$

MDZ021>025-VAZ099-100-050600-
SOUTHERN MARYLAND AND THE DELMARVA PENINSULA

CITY           SKY/WX    TMP DP  RH WIND       PRES   REMARKS
PATUXENT RIVER LGT RAIN  42  41  96 NW7       29.93R
BAY BRIDGE APT RAIN      37  37 100 N3        29.95F VSB 1
LEONARDTOWN    CLOUDY    43  43 100 CALM      29.94F
DOVER          LGT RAIN  40  40 100 N9        29.93F
GEORGETOWN     LGT RAIN  42  41  96 N3        29.92F FOG
EASTON         HVY RAIN  43  43 100 NE3       29.98R
CAMBRIDGE      CLOUDY    45  41  87 N6        29.92S
SALISBURY      CLOUDY    50  47  89 CALM      29.90F FOG
OCEAN CITY     LGT RAIN  43  43 100 CALM      29.91S VSB 1/4
WALLOPS ISLAND LGT RAIN  47  47 100 NW5       29.90S VSB 1
ACCOMACK*      FOG       46  45  93 W8        29.91R VSB 1/2
$$

NCZ012>017-030>032-050600-
NORTH CENTRAL AND EASTERN NORTH CAROLINA

CITY           SKY/WX    TMP DP  RH WIND       PRES   REMARKS
ROANOKE RAPIDS FAIR      55  54  94 CALM      29.88S
RALEIGH        MOCLDY    66  55  67 SW18G26   29.88F
ELIZABETH CITY PTCLDY    62  58  86 S16G24    29.89F
AHOSKIE*       PTCLDY    63  58  84 SW3       29.88S
EDENTON*       PTCLDY    61  58  89 S9        29.91F
CURRITUCK*     PTCLDY    64  57  79 S10G20    29.89F
KILL DEVIL HLS PTCLDY    61  59  95 SW9G20    29.92S
MANTEO         PTCLDY    54  52  94 S14       29.94S
CAPE HATTERAS  FOG       57  57 100 SW12G20   29.98F VSB 1/2
TARBORO*       FAIR      66  60  80 S12G20    29.89F
GOLDSBORO      CLEAR     65  65  99 S10       29.90F
WASHINGTON     CLEAR     66  60  81 SW12G20   29.93F
GREENVILLE     CLEAR     64  61  88 SW13      29.94F
NEW BERN       CLEAR     65  60  84 SW10      29.98S
WILMINGTON     CLOUDY    67  65  93 SW17G24   29.99F
$$

VAZ048-050600-
ELSEWHERE

CITY           SKY/WX    TMP DP  RH WIND       PRES   REMARKS
HARRISBURG PA  SLEET     34  32  92 NW7       29.95F
BALTIMORE      LGT RAIN  39  38  96 CALM      29.94S FOG
ANNAPOLIS      LGT RAIN  40  39  97 N3        29.94S FOG
ANDREWS AFB    LGT RAIN  42  42  99 N5        29.94R FOG
PHILADELPHIA   LGT RAIN  40  38  93 NW6       29.94F FOG
HENDERSON NC   PTCLDY    59  53  79 CALM      29.88R
GREENSBORO     MOCLDY    64  57  78 SW10      29.86F
ROCKY MOUNT    FAIR      66  60  81 S12       29.89F
$$

VAZ100-050600-
MARINE

STATION/POSITION TIME  TEMP    WIND        PRES    WAVE   SWELL
                       AIR SEA DIR/SP/G            HT/PER HT/PER
                 (UTC) (F)     (DEG/KT/KT) (MB)    (FT/S) (FT/S)
BRANDYWINE LGT   0500   43 31   20/ 14/ 14 1013.3F
CAPE MAY NJ      0500   41 35  360/  2/  5 1012.8F
LEWES DE         0500   35 32  330/  6/  7 1013.3S
15NM E FENWICK I 0500   38 36              1012.7R   4/ 7
OCEAN-CITY-INLET 0500   40 33   10/  4/  5 1012.8R
WACHAPREAGUE VA  0500   46 40   CALM  /  4 1012.3R
THOMAS POINT MD  0500   41 32  360/ 10/ 10 1015.1R
COVE POINT MD    0500   37     360/ 13/ 15 1013.5R
SOLOMONS ISLAND  0500      33                N/A
BISHOPS HEAD MD  0500   40 36   10/  2/  3 1012.3F
CAMBRIDGE MD     0500   44 32  300/  5/  6 1013.4R
LEWISETTA VA     0500   42 34   CALM  /  2 1012.5S
RAPPAHANNOCK LGT 0500          320/  8/  8 1013.3R
STINGRAY PT      0500   38 33   40/  2/  4   N/A     0
YORK RVR RNG VA  0500   45     350/ 14/ 14 1012.0R
YORKTOWN VA      0500   47 35  320/  7/ 10 1012.3R
DOMINION TERM VA 0500   42     320/  2/  3 1012.2R
KIPTOPEKE VA     0500      39  120/  1/  3   N/A
CHES BAY BRIDGE  0500   39 34  300/  5/  8 1011.9S
CAPE HENRY VA    0500   44      CALM  /  2 1010.7R
CHESAPEAKE LGHT  0400   50     250/ 13/ 14 1012.7R
WILLOUBY STN VA  0500   46     230/  2/  5 1012.5S
S CRANEY ISL VA  0500           CALM  /  1 1012.1F
CAPE HENRY BUOY  0500      37                N/A     3/ 7
1ST LANDING BUOY 0500   38 35  290/  2/  4 1011.9R   1/ 5
OFFSHORE WE BUOY 0500      37                N/A     4/ 8   3/ 8
64NM E OF VA BCH 0500   55 52  210/ 21/ 25 1012.0S   7/ 7   2/ 9
DUCK PIER NC     0500   59 35  200/ 17/ 21 1011.9S
44100 DUCK FRF   0500      38                N/A     4/ 6
44056 DUCK FRF   0500      37                N/A     3/ 7
OREGON INLET NC  0500   52 49  200/ 19/ 21 1014.3S
HATTERAS NC      0500   57 47  220/ 10/ 15 1015.5F
CAPE LOOKOUT NC  0400   61     220/ 12/ 16 1015.9R
$$


USA.gov is the U.S. government's official web portal to all federal, state and local government web resources and services.